Weather in Stary Iskitim

Russia / Novosibirsk Oblast     54°36′42″N   83°23′28″E
temp.,
°C
wind,
m/s
gust,
m/s
humid.,
%
clouds,
%
prec.,
mm/h
press.,
hPa
HPBL,
m
28 february, sun
sun2801:00−29ssw349655 0.0 104036
04:00−29s339750 0.0 103930
07:00−29sse349641 0.0 103942
10:00−26sse489639 0.0 1038190
13:00−20sse589345 0.0 1035327
16:00−15s598597 0.0 1032571
19:00−14sse489599 0.3 1028366
22:00−13se51194100 0.4 1026349
1 march, mon
mon101:00−11sse51193100 0.8 1022376
04:00−10sse61193100 0.4 1019455
07:00−8sse71293100 1.6 1015557
10:00−6s71194100 1.6 1012752
13:00−3s61295100 3.4 1009826
16:000ssw101596100 0.9 1008868
19:000sw81497100 3.4 1007903
22:00−1sw61197100 1.7 1007573
2 march, tue
tue201:00−2wsw61296100 2.5 1008659
04:00−8wnw3497100 0.5 1011138
07:00−11w2396100 1.0 101479
10:00−12w359595 0.3 1016243
13:00−10w469297 0.5 1018450
16:00−9wsw3591100 0.1 1018585
19:00−11wsw2296100 0.3 101845
22:00−15ssw129796 0.1 101820
3 march, wed
wed301:00−15sse119698 0.2 101620
04:00−14sse1196100 0.1 101520
07:00−14se0196100 0.4 101620
10:00−12ssw0094100 0.3 101595
13:00−10wsw2290100 0.6 1017321
16:00−9w3592100 0.4 1018477
19:00−11w239699 0.8 102072
22:00−14sw359699 0.2 1023124
4 march, thu
thu401:00−17ssw469696 0.3 1024130
04:00−20s349882 0.0 102564
07:00−21sse459878 0.0 102687
10:00−16sse599395 0.0 1025266
13:00−11sse6109397 0.0 1023395
16:00−7s71189100 0.0 1021603
19:00−8s51387100 0.0 1020430
22:00−8sse61291100 0.0 1018354